Content
SEND FEEDBACK

Daily
Averages
Monthly
Summary
United States of America

SOUTH LAKE TAHOE, CALIFORNIA


Home > North America > United States > California
Elevation: 6263 feet     Latitude: 38 53N     Longitude: 119 59W

WEATHER
 
SELECT A DAY
Number of Records: 174,582;   Date Range: 1/1/95 - 9/3/14
 
SHARE

PRINT THIS DATA

[ ← Previous Day ]
WEATHER ALMANAC - JANUARY 10, 2013
[ Next Day → ]
[ °C ]   °F
Weather ElementAverageHighLow
Temperature19 °F27 °F (1:53 pm)9 °F (4:53 am)
Dewpoint11.3 °F18 °F (12:53 am)3.9 °F (4:53 am)
Humidity72.8 %86 % (1:05 am)42 % (12:53 pm)
Barometer29.87 in30.05 in (6:53 pm)29.76 in (12:53 am)
Wind Speed2.4 mph10.4 mph (2:27 pm)
Wind Gust16.1 mph (2:27 pm)
Weather ElementAverage
Visibility6.1 mi
Wind DirectionNNE (29.6 °)

Weather ElementTotal
Precipitation0.23 in
Heating Degree Days47 (Base 65)
Averaged from 46 records on January 10, 2013
WEATHER CONDITIONS BREAKOUT
WIND DIRECTION BREAKOUT
WEATHER BY HOUR - JANUARY 10, 2013
[ °C ]   °F
Local TimeTemperatureDewpointHumidityBarometerVisibilityWind DirectionWind SpeedGust SpeedPrecipitationEventsConditions
12:28 AM24.8 °F17.6 °F74 %29.79 in0.8 miCalm0.02 inSnowLight Snow
12:35 AM23.0 °F17.6 °F80 %29.79 in0.2 miCalm0.03 inSnowHeavy Snow
12:53 AM23.0 °F18.0 °F81 %29.76 in0.8 miCalm0.04 inSnowLight Snow
12:59 AM23.0 °F17.6 °F80 %29.80 in0.8 miCalm0.00 inSnowLight Snow
1:05 AM21.2 °F17.6 °F86 %29.80 in1.2 miNNE (30°)3.5 mph0.00 inSnowLight Snow
1:12 AM21.2 °F15.8 °F80 %29.80 in3.0 miNNE (30°)4.6 mph0.00 inSnowLight Snow
1:22 AM19.4 °F15.8 °F86 %29.81 in4.0 miCalm0.00 inSnowLight Snow
1:31 AM17.6 °F14.0 °F86 %29.81 in8.0 miVariable3.5 mph0.00 inSnowLight Snow
1:44 AM21.2 °F8.6 °F58 %29.82 in10.0 miVariable6.9 mph0.00 inPartly Cloudy
1:53 AM21.0 °F9.0 °F60 %29.80 in10.0 miVariable3.5 mph0.00 inClear
2:53 AM14.0 °F8.1 °F77 %29.83 in10.0 miCalmClear
3:53 AM10.0 °F5.0 °F80 %29.86 in10.0 miCalm0.01 inClear
4:53 AM9.0 °F3.9 °F80 %29.86 in10.0 miCalmClear
5:53 AM10.9 °F6.1 °F81 %29.85 in10.0 miCalmMostly Cloudy
6:53 AM10.9 °F6.1 °F81 %29.88 in10.0 miCalmPartly Cloudy
7:53 AM12.0 °F7.0 °F80 %29.91 in10.0 miCalmPartly Cloudy
8:53 AM17.1 °F12.9 °F84 %29.91 in10.0 miCalmOvercast
9:53 AM21.9 °F10.0 °F60 %29.91 in10.0 miCalmPartly Cloudy
10:53 AM21.9 °F7.0 °F53 %29.92 in10.0 miVariable3.5 mphPartly Cloudy
11:53 AM23.0 °F6.1 °F48 %29.90 in10.0 miVariable4.6 mphMostly Cloudy
12:53 PM24.1 °F3.9 °F42 %29.87 in10.0 miNE (40°)5.8 mphMostly Cloudy
1:53 PM27.0 °F7.0 °F43 %29.86 in10.0 miVariable6.9 mphMostly Cloudy
2:17 PM21.2 °F14.0 °F74 %29.81 in2.5 miNE (40°)8.1 mph0.00 inSnowLight Snow
2:27 PM21.2 °F12.2 °F68 %29.82 in1.2 miNNE (20°)10.4 mph16.1 mph0.00 inSnowLight Snow
2:48 PM21.2 °F14.0 °F74 %29.83 in0.2 miNE (40°)5.8 mph0.00 inSnowHeavy Snow
2:53 PM21.0 °F14.0 °F74 %29.95 in0.5 miENE (60°)3.5 mph0.00 inSnowSnow
3:02 PM21.2 °F14.0 °F74 %29.83 in2.0 miCalm0.00 inSnowLight Snow
3:04 PM21.2 °F14.0 °F74 %29.83 in5.0 miCalm0.00 inSnowLight Snow
3:18 PM21.2 °F12.2 °F68 %29.83 in2.5 miNE (40°)4.6 mph0.00 inSnowLight Snow
3:26 PM21.2 °F12.2 °F68 %29.83 in1.5 miCalm0.00 inSnowLight Snow
3:31 PM21.2 °F12.2 °F68 %29.83 in3.0 miCalm0.00 inSnowLight Snow
3:53 PM21.0 °F12.9 °F71 %29.98 in8.0 miCalm0.00 inOvercast
4:00 PM21.2 °F12.2 °F68 %29.84 in2.0 miCalm0.00 inSnowLight Snow
4:03 PM21.2 °F10.4 °F63 %29.84 in0.8 miNNE (30°)6.9 mph0.01 inSnowLight Snow
4:15 PM21.2 °F15.8 °F80 %29.84 in0.2 miNNE (30°)4.6 mph0.02 inSnowHeavy Snow
4:22 PM19.4 °F15.8 °F86 %29.85 in1.0 miNE (40°)3.5 mph0.02 inSnowLight Snow
4:27 PM19.4 °F14.0 °F80 %29.85 in3.0 miCalm0.02 inSnowLight Snow
4:35 PM19.4 °F14.0 °F80 %29.85 in9.0 miCalm0.02 inMostly Cloudy
4:37 PM19.4 °F14.0 °F80 %29.85 in10.0 miCalm0.02 inScattered Clouds
4:53 PM19.9 °F14.0 °F78 %30.00 in10.0 miSSW (210°)3.5 mph0.02 inMostly Cloudy
5:53 PM17.1 °F10.9 °F77 %30.01 in10.0 miCalmPartly Cloudy
6:53 PM12.0 °F7.0 °F80 %30.05 in10.0 miSW (230°)3.5 mphClear
8:53 PM12.9 °F7.0 °F77 %30.05 in10.0 miSSE (150°)5.8 mph0.00 inOvercast
9:53 PM15.1 °F8.1 °F74 %30.00 in10.0 miSouth (170°)4.6 mphOvercast
10:53 PM10.9 °F3.9 °F73 %30.03 in10.0 miSSW (200°)3.5 mphClear
11:53 PM18.0 °F7.0 °F62 %30.00 in10.0 miCalmOvercast
Hourly data recorded from KTVL, located miles away from South Lake Tahoe, California







STORIES FROM OUR PARTNERS